Terug naar catalogus

STARLINK-37006

ActiefCommunicatieVLEO
NORAD 68187·PAYLOAD·🇺🇸 United States

Gelanceerd Mar 14, 2026 vanaf Vandenberg Space Force Base

Loading…

Volgende Passages (komende 24 uur)

TLE

VersSource: CelesTrak SupGP

Epoch: Sep 15, 2026, 03:31 UTC

1 68187C 26050W   26258.14701389 -.00010477  00000+0 -30947-3 0  2583
2 68187  53.1578 103.0211 0001263  81.1891 231.2856 15.34402230    11

Volg STARLINK-37006 in realtime met AllMySat

Download on the App Store